Location: Newark
(39.0083°N, 20.7336°E)
Time: 20:52:03
(UTC+00:00)

Nauka - Pass Details

Date: 04 October 2021
Orbit: 417 x 423 km, 51.6° (Epoch: 19 October)

Event Time Altitude Azimuth Distance (km) Brightness Sun altitude
Rises 17:34:17 0° 309° (NW) 2,363 ? -16.2°
Reaches altitude 10° 17:36:23 10° 312° (NW) 1,498 ? -16.6°
Maximum altitude 17:39:45 74° 37° (NE) 438 ? -17.3°
Enters shadow 17:40:25 52° 106° (ESE) 524 ? -17.4°
